Location: Ehingen
(48.2869°N, 9.7112°E)
Time: 03:52:56
(UTC+01:00)

ISS - Pass Details

Date: 16 November 2017
Orbit: 401 x 407 km, 51.6° (Epoch: 18 November)

Event Time Altitude Azimuth Distance (km) Brightness Sun altitude
Exits shadow 05:38:21 32° 204° (SSW) 707 -2.8 -18.4°
Drops below altitude 10° 05:41:02 10° 149° (SSE) 1,449 -0.5 -18.0°
Sets 05:43:13 0° 139° (SE) 2,304 0.8 -17.6°
